Waunakee, WI

12:23 AM CST on February 22, 2017 (GMT -0600)
Prairie Park | | Change Station
Active Advisory: Hydrologic Statement

Elev 928 ft 43.20 °N, 89.45 °W | Updated 5 seconds ago

Clear
Clear
42.7 °F
Feels Like 43 °F
N
0.0
Wind Variable Wind from NNE
Gusts 0.0 mph

Today
High -- | Low -- °F
--% Chance of Precip.
Yesterday
High -- | Low -- °F
Precip. -- in
Pressure 29.80 in
Visibility 10.0 miles
Clouds Clear
Windchill 43 °F
Dew Point Not available.
Humidity Not available.
Rainfall 0.00 in
Snow Depth Not available.
6:44 AM 5:38 PM
Waning Crescent, 19% visible
METAR KC29 220615Z AUTO 24005KT 10SM CLR 10/04 A2980 RMK AO1 T00960040
Pressure 29.80 in
Visibility 10.0 miles
Clouds Clear
Windchill 43 °F
Dew Point Not available.
Humidity Not available.
Rainfall 0.00 in
Snow Depth Not available.
6:44 AM 5:38 PM
Waning Crescent, 19% visible
METAR KC29 220615Z AUTO 24005KT 10SM CLR 10/04 A2980 RMK AO1 T00960040

Get Your Daily Forecast Email!

Thanks for signing up!

Be on the lookout for a verification email in your inbox.

You'll start receiving the daily forecast at 8 AM.

×

10-Day Weather Forecast

Almanac

Astronomy

Feb. 22, 2017 Rise Set
Actual Time
Civil Twilight
Nautical Twilight
Astronomical Twilight
Moon
Length of Visible Light
Length of Day
Tomorrow will be .
, % of the Moon is Illuminated

Today's Extremes

State Highs State Lows

Community

WunderPhotos

Upload Photos

1,962,540 photos uploaded!

WunderBlog® & News

Nearby

Air Quality

  Air Quality AQ Index Pollutant
Not available.

Snow Depth

Station Depth Elevation

Earthquake Activity

City Distance Mag. Time & Date
Minimum magnitude displayed is 2.5.

Coastal Water Temperatures

Place Temperature

Stations

Nearby Weather Stations

Station Location Temp. Windchill Dew Point Humidity Wind Precip. Elev Updated Type
                   

Watches & Warnings

Hydrologic Statement
Issued: 2:32 PM CST Feb. 21, 2017 – National Weather Service

Forecast information for
crawfish river at Columbus.
* At 2:30 PM Tuesday the stage was 13.1 feet.
* Flood stage is 17.5 feet.